This is the latest recevied weather packets stored in our database for station/object KD9DOE. If no packets are shown the sender has not sent any weather packets the latest 10 day(s).
| Time | Temp. | Humidity | Pressure | Rain* | Wind** | Luminosity | Snow |
|---|---|---|---|---|---|---|---|
| 1777922487 | 26.67° C | 26% | 997 hPa | 0 mm | - | 731 W/m² | - |
| 1777922185 | 26.11° C | 27% | 997.3 hPa | 0 mm | - | 696 W/m² | - |
| 1777921881 | 26.67° C | 27% | 997.2 hPa | 0 mm | - | 448 W/m² | - |
| 1777921577 | 26.67° C | 26% | 997.2 hPa | 0 mm | - | 668 W/m² | - |
| 1777921274 | 26.11° C | 27% | 997.5 hPa | 0 mm | - | 616 W/m² | - |
| 1777920971 | 26.11° C | 26% | 997.6 hPa | 0 mm | - | 643 W/m² | - |
| 1777920667 | 26.11° C | 26% | 997.5 hPa | 0 mm | - | 782 W/m² | - |
| 1777920363 | 26.67° C | 26% | 997.6 hPa | 0 mm | - | 712 W/m² | - |
| 1777920058 | 26.11° C | 27% | 997.6 hPa | 0 mm | - | 765 W/m² | - |
| 1777919755 | 26.67° C | 25% | 997.9 hPa | 0 mm | - | 731 W/m² | - |
| 1777919453 | 26.11° C | 26% | 997.7 hPa | 0 mm | - | 795 W/m² | - |
| 1777919150 | 26.11° C | 26% | 997.6 hPa | 0 mm | - | 761 W/m² | - |
| 1777918848 | 26.11° C | 25% | 997.9 hPa | 0 mm | - | 796 W/m² | - |
| 1777918544 | 25.56° C | 26% | 997.6 hPa | 0 mm | - | 678 W/m² | - |
| 1777918243 | 25.56° C | 25% | 997.8 hPa | 0 mm | - | 749 W/m² | - |
| 1777917941 | 25.56° C | 26% | 997.8 hPa | 0 mm | - | 612 W/m² | - |
| 1777917640 | 26.11° C | 25% | 997.8 hPa | 0 mm | - | 616 W/m² | - |
| 1777917337 | 25.56° C | 25% | 997.8 hPa | 0 mm | - | 718 W/m² | - |
| 1777917034 | 25.56° C | 25% | 997.8 hPa | 0 mm | - | 803 W/m² | - |
| 1777916732 | 25.56° C | 25% | 997.8 hPa | 0 mm | - | 805 W/m² | - |
| 1777916428 | 25.56° C | 25% | 997.8 hPa | 0 mm | - | 764 W/m² | - |
| 1777916125 | 26.11° C | 25% | 997.9 hPa | 0 mm | - | 754 W/m² | - |
| 1777915822 | 25.56° C | 26% | 997.7 hPa | 0 mm | - | 744 W/m² | - |
| 1777915518 | 25° C | 26% | 997.8 hPa | 0 mm | - | 577 W/m² | - |
| 1777915215 | 25° C | 26% | 997.9 hPa | 0 mm | - | 871 W/m² | - |
* Rain latest hour (hover to see other rain measurements)
** Current wind speed in m/s (hover to see current wind gust speed)